Waarnemingen

Advertentie
Mijn weer
Reus, Spanje (8175): temperatuur & dauwpunt: 12.11.2018 17:00:00 - 18.11.2018 17:00:00 (CET)Reus, Spanje (8175): windsnelheid: 12.11.2018 17:00:00 - 18.11.2018 17:00:00 (CET)Reus, Spanje (8175): windrichting: 12.11.2018 17:00:00 - 18.11.2018 17:00:00 (CET)Reus, Spanje (8175): luchtdruk: 12.11.2018 17:00:00 - 18.11.2018 17:00:00 (CET)Reus, Spanje (8175): zicht: 12.11.2018 17:00:00 - 18.11.2018 17:00:00 (CET)
Datum & Tijd tt [°C] td [°C] ff [km/u] ff [kn] dd ppp [hPa] vv [km]
18.11.2018 17:00:00 12,9 9,9 24 13 NO 1009,9 30
18.11.2018 16:00:00 13,4 9,7 29 16 ONO 1010,0 30
18.11.2018 15:00:00 13,6 9,6 18 10 ONO 1010,5 30
18.11.2018 14:00:00 14,4 9,1 22 12 ONO 1010,7 30
18.11.2018 13:00:00 13,3 9,7 28 15 ONO 1011,5 9
18.11.2018 12:00:00 14,4 9,6 18 10 O 1012,0 30
18.11.2018 11:00:00 14,4 8,9 18 10 ONO 1012,4 30
18.11.2018 10:00:00 13,9 8,9 18 10 NO 1012,3 30
18.11.2018 09:00:00 12,5 8,4 8 4 NO 1012,6 30
18.11.2018 08:00:00 11,4 8,3 13 7 NNO 1012,1 30
18.11.2018 07:00:00 11,0 8,5 9 5 NNO 1012,0 30
18.11.2018 06:00:00 12,0 9,0 13 7 NNO 1012,2 30
18.11.2018 05:00:00 12,3 8,9 16 9 NO 1012,4 30
18.11.2018 04:00:00 12,4 9,7 13 7 NO 1012,7 30
18.11.2018 03:00:00 12,6 9,6 13 7 NO 1013,1 30
18.11.2018 02:00:00 12,5 10,1 13 7 NO 1013,3 30
18.11.2018 01:00:00 12,4 10,7 8 4 NO 1014,0 30
18.11.2018 00:00:00 12,8 11,1 8 4 N 1014,4 30
17.11.2018 23:00:00 13,2 10,9 11 6 NNO 1014,8 29
17.11.2018 22:00:00 13,5 10,6 13 7 NNO 1014,9 22
17.11.2018 21:00:00 13,6 10,9 9 5 N 1015,1 27
17.11.2018 20:00:00 13,6 12,0 9 5 N 1015,2 20
17.11.2018 19:00:00 13,1 11,8 8 4 N 1015,4 20
17.11.2018 18:00:00 13,5 11,7 8 4 N 1015,3 17
17.11.2018 17:00:00 13,8 12,2 8 4 N 1015,5 12
17.11.2018 16:00:00 14,0 12,6 9 5 N 1015,8 8
17.11.2018 15:00:00 13,6 12,5 11 6 N 1016,2 9
17.11.2018 14:00:00 13,8 12,7 8 4 NNO 1016,6 4,2
17.11.2018 13:00:00 15,0 12,1 5 3 N 1017,1 11
17.11.2018 12:00:00 16,0 11,2 13 7 ONO 1017,4 20
17.11.2018 11:00:00 16,0 9,9 9 5 NNO 1018,0 24
17.11.2018 10:00:00 15,1 10,6 5 3 NNW 1018,4 28
17.11.2018 09:00:00 14,3 11,3 8 4 NNO 1018,5 30
17.11.2018 08:00:00 14,1 11,3 8 4 NNO 1018,5 30
17.11.2018 07:00:00 14,1 12,0 8 4 N 1018,5 25
17.11.2018 06:00:00 14,3 13,0 5 3 NNO 1018,7 20
17.11.2018 05:00:00 14,8 12,9 11 6 NNO 1018,8 10
17.11.2018 04:00:00 15,1 12,3 11 6 ONO 1019,1 23
17.11.2018 03:00:00 15,2 12,3 9 5 N 1019,7 23
17.11.2018 02:00:00 15,3 12,3 9 5 NNO 1019,9 21
17.11.2018 01:00:00 15,6 12,4 9 5 NNO 1020,3 20
17.11.2018 00:00:00 15,3 12,7 11 6 NNO 1020,4 16
16.11.2018 23:00:00 15,5 13,3 9 5 N 1020,6 13
16.11.2018 22:00:00 16,1 12,6 11 6 NNO 1020,7 18
16.11.2018 21:00:00 16,0 13,1 11 6 NO 1020,5 30
16.11.2018 20:00:00 16,3 13,0 9 5 NNO 1020,5 19
16.11.2018 19:00:00 16,4 13,4 11 6 NNO 1020,7 20
16.11.2018 18:00:00 15,9 13,4 9 5 ONO 1020,6 18
16.11.2018 17:00:00 16,8 13,1 16 9 O 1020,3 30
16.11.2018 16:00:00 18,8 14,2 18 10 O 1020,1 25
16.11.2018 15:00:00 19,4 15,4 22 12 OZO 1020,1 30
16.11.2018 14:00:00 19,8 15,1 16 9 ZO 1020,4 28
16.11.2018 13:00:00 20,2 14,4 15 8 ZO 1020,9 30
16.11.2018 12:00:00 19,8 14,3 13 7 ZO 1021,5 30
16.11.2018 11:00:00 18,6 13,5 9 5 O 1021,8 30
16.11.2018 10:00:00 17,3 13,8 9 5 N 1021,5 30
16.11.2018 09:00:00 15,1 13,4 8 4 NO 1021,5 30
16.11.2018 08:00:00 14,8 13,2 9 5 N 1020,9 21
16.11.2018 07:00:00 14,8 12,9 11 6 N 1020,5 20
16.11.2018 06:00:00 14,6 12,6 15 8 N 1020,6 30
16.11.2018 05:00:00 14,0 12,9 11 6 NNO 1020,6 25
16.11.2018 04:00:00 14,1 12,8 9 5 N 1020,6 18
16.11.2018 03:00:00 14,0 12,9 11 6 N 1020,9 27
16.11.2018 02:00:00 13,9 12,5 8 4 NNO 1021,0 17
16.11.2018 01:00:00 15,3 13,2 11 6 N 1020,9 24
16.11.2018 00:00:00 16,0 13,9 9 5 NNO 1021,1 30
15.11.2018 23:00:00 15,3 13,3 11 6 N 1021,1 30
15.11.2018 22:00:00 14,6 13,0 9 5 NO 1020,9 30
15.11.2018 21:00:00 15,1 12,8 8 4 NO 1020,3 30
15.11.2018 20:00:00 15,8 13,0 11 6 NNO 1020,2 30
15.11.2018 19:00:00 16,6 13,1 13 7 N 1019,9 20
15.11.2018 18:00:00 16,1 13,0 13 7 NNO 1019,5 30
15.11.2018 17:00:00 17,8 13,7 11 6 NNO 1019,3 30
15.11.2018 16:00:00 18,0 12,8 16 9 N 1019,1 20
15.11.2018 15:00:00 18,5 13,8 18 10 N 1019,4 30
15.11.2018 14:00:00 18,9 14,7 18 10 N 1019,6 30
15.11.2018 13:00:00 18,1 15,7 16 9 NO 1020,1 20
15.11.2018 12:00:00 18,0 15,0 18 10 NO 1020,1 30
15.11.2018 11:00:00 17,3 15,2 16 9 NNO 1020,5 23
15.11.2018 10:00:00 16,1 15,1 15 8 NNO 1020,4 9
15.11.2018 09:00:00 16,5 14,6 13 7 NO 1020,0 23
15.11.2018 08:00:00 16,2 14,6 16 9 NNO 1019,4 26
15.11.2018 07:00:00 16,6 15,0 15 8 NNO 1019,3 15
15.11.2018 06:00:00 16,1 15,1 13 7 NNO 1019,4 14
15.11.2018 05:00:00 16,3 15,0 15 8 NO 1019,5 9
15.11.2018 04:00:00 16,7 14,8 13 7 NO 1019,9 15
15.11.2018 03:00:00 16,4 14,9 11 6 NO 1020,7 12
15.11.2018 02:00:00 16,3 14,4 11 6 NNO 1021,0 9
15.11.2018 01:00:00 16,1 14,3 13 7 NNO 1021,3 15
15.11.2018 00:00:00 16,0 14,4 9 5 NNO 1021,9 15
14.11.2018 23:00:00 16,4 14,3 9 5 NNO 1022,4 16
14.11.2018 22:00:00 16,2 14,1 8 4 N 1022,6 16
14.11.2018 21:00:00 15,1 14,0 8 4 NO 1022,4 10
14.11.2018 20:00:00 15,8 14,4 9 5 N 1022,6 15
14.11.2018 19:00:00 15,6 14,8 9 5 ONO 1022,8 12
14.11.2018 18:00:00 16,7 15,1 11 6 O 1022,7 13
14.11.2018 17:00:00 17,8 15,4 11 6 OZO 1022,8 20
14.11.2018 16:00:00 18,4 15,8 16 9 OZO 1022,6 20
14.11.2018 15:00:00 19,9 15,5 16 9 OZO 1022,9 20
14.11.2018 14:00:00 21,0 14,6 18 10 O 1023,1 30
14.11.2018 13:00:00 19,4 14,8 11 6 O 1023,6 20
14.11.2018 12:00:00 18,8 14,4 13 7 NO 1024,4 26
14.11.2018 11:00:00 - - - - - - -
14.11.2018 10:00:00 18,4 14,1 5 3 N 1016,7 15
14.11.2018 09:00:00 - - - - - - -
14.11.2018 08:00:00 - - - - - - -
14.11.2018 07:00:00 - - - - - - 15
14.11.2018 06:00:00 - - - - - - -
14.11.2018 05:00:00 - - - - - - -
14.11.2018 04:00:00 - - - - - - -
14.11.2018 03:00:00 - - - - - - -
14.11.2018 02:00:00 - - - - - - -
14.11.2018 01:00:00 - - - - - - -
14.11.2018 00:00:00 - - - - - - -
13.11.2018 23:00:00 - - - - - - -
13.11.2018 22:00:00 - - - - - - -
13.11.2018 21:00:00 - - - - - - -
13.11.2018 20:00:00 16,6 15,4 4 2 NNW 1026,2 7
13.11.2018 19:00:00 17,6 15,9 4 2 N 1026,0 10
13.11.2018 18:00:00 17,5 15,9 11 6 O 1025,4 11
13.11.2018 17:00:00 19,0 16,1 15 8 OZO 1024,9 14
13.11.2018 16:00:00 20,5 16,4 15 8 O 1024,5 17
13.11.2018 15:00:00 22,0 16,3 16 9 OZO 1024,1 13
13.11.2018 14:00:00 21,9 16,2 15 8 O 1024,2 22
13.11.2018 13:00:00 21,7 15,2 16 9 ONO 1024,7 27
13.11.2018 12:00:00 21,4 14,9 16 9 NO 1024,9 29
13.11.2018 11:00:00 19,8 14,3 18 10 NNO 1025,2 30
13.11.2018 10:00:00 18,2 13,2 15 8 N 1024,9 30
13.11.2018 09:00:00 14,4 12,8 8 4 N 1024,3 25
13.11.2018 08:00:00 11,8 11,1 13 7 NNW 1023,8 12
13.11.2018 07:00:00 10,8 10,3 9 5 N 1023,2 21
13.11.2018 06:00:00 11,6 10,9 5 3 N 1022,4 19
13.11.2018 05:00:00 11,4 10,9 8 4 NNO 1022,1 18
13.11.2018 04:00:00 11,4 10,8 2 1 NNO 1021,9 16
13.11.2018 03:00:00 12,6 11,4 8 4 NNO 1021,6 19
13.11.2018 02:00:00 12,2 11,5 8 4 NO 1021,1 13
13.11.2018 01:00:00 13,2 12,1 9 5 NNO 1021,0 14
13.11.2018 00:00:00 14,9 13,0 13 7 N 1020,6 24
12.11.2018 23:00:00 14,3 13,2 8 4 NNO 1020,4 11
12.11.2018 22:00:00 14,8 13,4 8 4 N 1020,4 15
12.11.2018 21:00:00 15,5 14,0 9 5 NNO 1020,0 19
12.11.2018 20:00:00 15,5 14,6 9 5 N 1019,4 13
12.11.2018 19:00:00 16,2 15,3 8 4 ONO 1019,1 15
12.11.2018 18:00:00 17,0 15,1 11 6 O 1018,3 15
12.11.2018 17:00:00 18,5 14,9 11 6 O 1017,9 10

tt = temperatuur
td = dauwpunt
ff = windsnelheid
dd = windrichting
ppp = luchtdruk
vv = zicht

Weerstations in de omgeving